Cando, ND

3:40 AM CDT on May 30, 2017 (GMT -0500)
Cando

Weather History for K9D7 - April, 2014

Change the Weather History Date:

Thursday, April 17, 2014

  Actual Average (KDVL) Record (KDVL)
Temperature  
Mean Temperature 26 °F -  
Max Temperature 39 °F 53 °F 81 °F (1981)
Min Temperature 14 °F 30 °F 8 °F (1953)
Degree Days  
Heating Degree Days 38    
Moisture  
Dew Point 12 °F    
Average Humidity 56    
Maximum Humidity 93    
Minimum Humidity 22    
Precipitation  
Precipitation 0.00 in - - ()
Sea Level Pressure  
Sea Level Pressure 30.30 in    
Wind  
Wind Speed 8 mph (East)    
Max Wind Speed 16 mph    
Max Gust Speed 16 mph    
Visibility 10 miles    
Events      
Averages and records for this station are not official NWS values.
T = Trace of Precipitation, MM = Missing Value Source: NWS Daily Summary

Daily Weather History Graph

Daily Weather History Graph

Search for Another Location

Airport or City:

Trip Planner

Search our weather history database for the weather conditions in past years. The results will help you decide how hot, cold, wet, or windy it might be!

Date:

Astronomy

Apr. 17, 2014 Rise Set
Actual Time 6:42 AM CDT 8:31 PM CDT
Civil Twilight 6:09 AM CDT 9:04 PM CDT
Nautical Twilight 5:28 AM CDT 9:45 PM CDT
Astronomical Twilight 4:44 AM CDT 10:30 PM CDT
Moon 11:28 PM CDT (4/17) 8:07 AM CDT (4/17)
Length of Visible Light 14h 54m
Length of Day
13h 48m
Waning Gibbous, 93% of the Moon is Illuminated
Apr 17
Waning Gibbous
Apr 22
Last Quarter
Apr 29
New
May 6
First Quarter
May 14
Full

Hourly Weather History & Observations

Time (CDT) Temp. Windchill Dew Point Humidity Pressure Visibility Wind Dir Wind Speed Gust Speed Precip Events Conditions
12:15 AM 19.4 °F 9.5 °F 14.0 °F 80% 30.33 in 10.0 mi NNE 8.1 mph - N/A   Clear
12:35 AM 19.4 °F 8.6 °F 14.0 °F 80% 30.33 in 10.0 mi NNE 9.2 mph - N/A   Clear
12:55 AM 19.4 °F 9.5 °F 14.0 °F 80% 30.34 in 10.0 mi NNE 8.1 mph - N/A   Clear
1:15 AM 19.4 °F 9.5 °F 14.0 °F 80% 30.34 in 10.0 mi NNE 8.1 mph - N/A   Clear
1:35 AM 17.6 °F 7.3 °F 14.0 °F 86% 30.34 in 10.0 mi NNE 8.1 mph - N/A   Clear
1:55 AM 17.6 °F 8.2 °F 14.0 °F 86% 30.34 in 10.0 mi NNE 6.9 mph - N/A   Clear
2:15 AM 17.6 °F 9.3 °F 14.0 °F 86% 30.34 in 10.0 mi NNE 5.8 mph - N/A   Clear
2:35 AM 15.8 °F 7.2 °F 14.0 °F 93% 30.34 in 10.0 mi North 5.8 mph - N/A   Clear
2:55 AM 15.8 °F 6.1 °F 14.0 °F 93% 30.34 in 10.0 mi North 6.9 mph - N/A   Clear
3:15 AM 15.8 °F 5.1 °F 12.2 °F 86% 30.34 in 10.0 mi North 8.1 mph - N/A   Clear
3:35 AM 15.8 °F 6.1 °F 12.2 °F 86% 30.33 in 10.0 mi NNE 6.9 mph - N/A   Clear
3:55 AM 15.8 °F 6.1 °F 12.2 °F 86% 30.33 in 10.0 mi NNE 6.9 mph - N/A   Clear
4:15 AM 15.8 °F 6.1 °F 12.2 °F 86% 30.33 in 10.0 mi NNE 6.9 mph - N/A   Clear
4:35 AM 15.8 °F 5.1 °F 12.2 °F 86% 30.33 in 10.0 mi NNE 8.1 mph - N/A   Clear
4:55 AM 15.8 °F 5.1 °F 12.2 °F 86% 30.33 in 10.0 mi NNE 8.1 mph - N/A   Clear
5:15 AM 15.8 °F 6.1 °F 12.2 °F 86% 30.33 in 10.0 mi NNE 6.9 mph - N/A   Clear
5:35 AM 15.8 °F 7.2 °F 10.4 °F 79% 30.33 in 10.0 mi NNE 5.8 mph - N/A   Clear
5:55 AM 15.8 °F 5.1 °F 10.4 °F 79% 30.33 in 10.0 mi NNE 8.1 mph - N/A   Clear
6:15 AM 15.8 °F 8.6 °F 10.4 °F 79% 30.33 in 10.0 mi NNE 4.6 mph - N/A   Clear
6:35 AM 14.0 °F 5.1 °F 10.4 °F 86% 30.34 in 10.0 mi North 5.8 mph - N/A   Clear
6:55 AM 14.0 °F 6.5 °F 10.4 °F 86% 30.34 in 10.0 mi NNE 4.6 mph - N/A   Clear
7:15 AM 15.8 °F 7.2 °F 10.4 °F 79% 30.34 in 10.0 mi NNE 5.8 mph - N/A   Clear
7:35 AM 17.6 °F 9.3 °F 12.2 °F 79% 30.34 in 10.0 mi NNE 5.8 mph - N/A   Clear
7:55 AM 17.6 °F 9.3 °F 14.0 °F 86% 30.35 in 10.0 mi NNE 5.8 mph - N/A   Clear
8:15 AM 19.4 °F 11.5 °F 12.2 °F 74% 30.35 in 10.0 mi NE 5.8 mph - N/A   Clear
8:35 AM 21.2 °F 14.9 °F 14.0 °F 74% 30.35 in 10.0 mi ENE 4.6 mph - N/A   Clear
8:55 AM 23.0 °F 18.4 °F 14.0 °F 68% 30.35 in 10.0 mi ENE 3.5 mph - N/A   Clear
9:15 AM 24.8 °F - 14.0 °F 64% 30.35 in 10.0 mi Calm Calm - N/A   Clear
9:35 AM 26.6 °F 21.2 °F 14.0 °F 59% 30.34 in 10.0 mi ESE 4.6 mph - N/A   Clear
9:55 AM 28.4 °F 24.6 °F 14.0 °F 55% 30.34 in 10.0 mi East 3.5 mph - N/A   Clear
10:15 AM 28.4 °F 24.6 °F 12.2 °F 51% 30.34 in 10.0 mi ESE 3.5 mph - N/A   Clear
10:35 AM 32.0 °F 27.5 °F 12.2 °F 44% 30.34 in 10.0 mi East 4.6 mph - N/A   Clear
11:15 AM 32.0 °F 24.2 °F 8.6 °F 38% 30.34 in 10.0 mi SSE 9.2 mph - N/A   Clear
11:35 AM 33.8 °F 26.4 °F 6.8 °F 32% 30.33 in 10.0 mi SE 9.2 mph - N/A   Clear
11:55 AM 35.6 °F 29.2 °F 6.8 °F 30% 30.33 in 10.0 mi SE 8.1 mph - N/A   Clear
12:15 PM 35.6 °F 29.2 °F 6.8 °F 30% 30.33 in 10.0 mi SSE 8.1 mph - N/A   Clear
12:35 PM 35.6 °F 29.9 °F 5.0 °F 28% 30.33 in 10.0 mi SSE 6.9 mph - N/A   Clear
12:55 PM 35.6 °F 29.2 °F 5.0 °F 28% 30.32 in 10.0 mi South 8.1 mph - N/A   Clear
1:15 PM 37.4 °F 31.4 °F 5.0 °F 26% 30.31 in 10.0 mi SE 8.1 mph - N/A   Clear
1:35 PM 37.4 °F 33.8 °F 5.0 °F 26% 30.30 in 10.0 mi South 4.6 mph - N/A   Clear
1:55 PM 37.4 °F 29.8 °F 5.0 °F 26% 30.29 in 10.0 mi SE 11.5 mph 16.1 mph N/A   Clear
2:15 PM 37.4 °F 30.8 °F 1.4 °F 22% 30.29 in 10.0 mi SE 9.2 mph - N/A   Clear
2:35 PM 37.4 °F 30.3 °F 6.8 °F 28% 30.29 in 10.0 mi South 10.4 mph - N/A   Clear
2:55 PM 37.4 °F 30.3 °F 6.8 °F 28% 30.28 in 10.0 mi SSE 10.4 mph - N/A   Clear
3:15 PM 37.4 °F 30.8 °F 8.6 °F 30% 30.28 in 10.0 mi South 9.2 mph - N/A   Clear
3:35 PM 39.2 °F 35.0 °F 8.6 °F 28% 30.27 in 10.0 mi SE 5.8 mph - N/A   Mostly Cloudy
3:55 PM 39.2 °F 33.0 °F 6.8 °F 26% 30.27 in 10.0 mi South 9.2 mph - N/A   Overcast
4:15 PM 39.2 °F 33.6 °F 8.6 °F 28% 30.26 in 10.0 mi ESE 8.1 mph - N/A   Mostly Cloudy
4:35 PM 37.4 °F 30.8 °F 6.8 °F 28% 30.26 in 10.0 mi SE 9.2 mph - N/A   Partly Cloudy
4:55 PM 39.2 °F 34.2 °F 8.6 °F 28% 30.25 in 10.0 mi SE 6.9 mph - N/A   Clear
5:15 PM 39.2 °F 34.2 °F 8.6 °F 28% 30.25 in 10.0 mi SSE 6.9 mph 16.1 mph N/A   Partly Cloudy
5:35 PM 39.2 °F 34.2 °F 8.6 °F 28% 30.25 in 10.0 mi SSE 6.9 mph - N/A   Mostly Cloudy
5:55 PM 39.2 °F 31.6 °F 8.6 °F 28% 30.25 in 10.0 mi SE 12.7 mph - N/A   Mostly Cloudy
6:15 PM 39.2 °F 33.6 °F 8.6 °F 28% 30.24 in 10.0 mi SE 8.1 mph - N/A   Overcast
6:35 PM 39.2 °F 32.5 °F 8.6 °F 28% 30.24 in 10.0 mi SE 10.4 mph - N/A   Overcast
7:15 PM 37.4 °F 30.8 °F 10.4 °F 33% 30.23 in 10.0 mi SE 9.2 mph - N/A   Overcast
7:35 PM 37.4 °F 31.4 °F 14.0 °F 38% 30.23 in 10.0 mi SE 8.1 mph - N/A   Overcast
7:55 PM 37.4 °F 31.4 °F 15.8 °F 41% 30.23 in 10.0 mi SE 8.1 mph - N/A   Overcast
8:15 PM 35.6 °F 29.2 °F 17.6 °F 48% 30.22 in 10.0 mi ESE 8.1 mph - N/A   Overcast
8:35 PM 35.6 °F 28.0 °F 17.6 °F 48% 30.22 in 10.0 mi ESE 10.4 mph - N/A   Overcast
8:55 PM 35.6 °F 28.0 °F 17.6 °F 48% 30.23 in 10.0 mi ESE 10.4 mph - N/A   Overcast
9:15 PM 33.8 °F 26.4 °F 19.4 °F 56% 30.23 in 10.0 mi ESE 9.2 mph - N/A   Overcast
9:35 PM 33.8 °F 24.3 °F 17.6 °F 52% 30.24 in 10.0 mi ESE 13.8 mph - N/A   Overcast
9:55 PM 33.8 °F 24.3 °F 17.6 °F 52% 30.24 in 10.0 mi ESE 13.8 mph - N/A   Overcast
10:15 PM 32.0 °F 21.6 °F 17.6 °F 55% 30.24 in 10.0 mi ESE 15.0 mph - N/A   Overcast
10:35 PM 32.0 °F 21.2 °F 17.6 °F 55% 30.23 in 10.0 mi ESE 16.1 mph - N/A   Overcast
10:55 PM 32.0 °F 21.2 °F 17.6 °F 55% 30.23 in 10.0 mi ESE 16.1 mph - N/A   Overcast
11:15 PM 32.0 °F 21.6 °F 17.6 °F 55% 30.23 in 10.0 mi ESE 15.0 mph - N/A   Overcast
11:35 PM 32.0 °F 22.1 °F 17.6 °F 55% 30.23 in 10.0 mi ESE 13.8 mph - N/A   Overcast
11:55 PM 32.0 °F 22.1 °F 17.6 °F 55% 30.23 in 10.0 mi ESE 13.8 mph - N/A   Overcast